START_TIME,STEP,MOV.,AL01,t_acc.,AL02,t_acc.,E37,t_acc.,H21,t_acc.
1979-07-03 15:22:20.760 ,0,0,0.,24.0,0.,24.0,0.,24.0,0.,24.0
1979-07-03 15:22:35.160 ,2,1,0.,24.0,0.,24.0,0.,24.0,0.,24.0
1979-07-03 15:22:59.160 ,2,0,1.,24.0,0.,24.0,0.,24.0,0.,24.0
1979-07-03 15:23:23.160 ,0,0,,0,,0,,0,,0
1979-07-03 15:23:47.160 ,0,0,,0,,0,,0,,0
1979-07-03 15:24:17.160 ,0,0,0.,24.0,0.,24.0,0.,24.0,0.,24.0
1979-07-03 15:24:35.160 ,0,0,0.,24.0,0.,24.0,0.,24.0,0.,24.0
1979-07-03 15:24:59.160 ,0,1,0.,24.0,0.,24.0,0.,24.0,0.,24.0
1979-07-03 15:25:23.160 ,0,0,1.,24.0,0.,24.0,0.,24.0,0.,24.0
1979-07-03 15:25:47.160 ,1,1,0.,24.0,0.,24.0,0.,24.0,0.,24.0
1979-07-03 15:26:11.160 ,1,0,0.,24.0,0.,24.0,0.,24.0,0.,24.0
1979-07-03 15:26:35.160 ,2,1,0.,24.0,0.,24.0,0.,24.0,0.,24.0
1979-07-03 15:26:59.160 ,2,0,0.,24.0,0.,24.0,0.,24.0,0.,24.0
1979-07-03 15:27:23.160 ,3,1,0.,24.0,0.,24.0,1.,24.0,0.,24.0
1979-07-03 15:27:47.160 ,3,0,0.,24.0,0.,24.0,0.,24.0,0.,24.0
1979-07-03 15:28:11.160 ,4,1,0.,24.0,0.,24.0,0.,24.0,0.,24.0
1979-07-03 15:28:35.160 ,4,0,0.,24.0,0.,24.0,1.,24.0,0.,24.0
1979-07-03 15:28:59.160 ,5,1,0.,24.0,0.,24.0,0.,24.0,0.,24.0
1979-07-03 15:29:23.160 ,5,0,0.,24.0,0.,24.0,1.,24.0,0.,24.0
1979-07-03 15:29:47.160 ,6,1,0.,24.0,0.,24.0,0.,24.0,0.,24.0
1979-07-03 15:30:11.160 ,6,0,0.,24.0,0.,24.0,0.,24.0,0.,24.0
1979-07-03 15:30:35.160 ,7,0,3.,24.0,0.,24.0,0.,24.0,0.,24.0
1979-07-03 15:30:59.160 ,7,0,32.,24.0,0.,24.0,0.,24.0,0.,24.0
1979-07-03 15:31:23.160 ,5,1,19.,24.0,0.,24.0,0.,24.0,0.,24.0
1979-07-03 15:31:47.160 ,1,1,0.,24.0,0.,24.0,0.,24.0,0.,24.0
1979-07-03 15:32:11.160 ,2,1,0.,24.0,0.,24.0,1.,24.0,0.,24.0
1979-07-03 15:32:35.160 ,6,1,0.,24.0,0.,24.0,1.,24.0,0.,24.0
1979-07-03 15:32:59.160 ,5,1,12.,24.0,0.,24.0,1.,24.0,0.,24.0
1979-07-03 15:33:23.160 ,1,1,0.,24.0,1.,24.0,1.,24.0,0.,24.0
1979-07-03 15:33:47.160 ,2,1,0.,24.0,1.,24.0,1.,24.0,0.,24.0
1979-07-03 15:34:11.160 ,6,1,1.,24.0,0.,24.0,0.,24.0,0.,24.0
1979-07-03 15:34:35.160 ,5,1,18.,24.0,0.,24.0,0.,24.0,0.,24.0
1979-07-03 15:34:59.160 ,1,1,0.,24.0,0.,24.0,0.,24.0,0.,24.0
1979-07-03 15:35:23.160 ,2,1,1.,24.0,0.,24.0,0.,24.0,0.,24.0
1979-07-03 15:35:47.160 ,6,1,0.,24.0,0.,24.0,1.,24.0,0.,24.0
1979-07-03 15:36:11.160 ,5,1,21.,24.0,0.,24.0,0.,24.0,0.,24.0
1979-07-03 15:36:35.160 ,1,1,0.,24.0,0.,24.0,1.,24.0,0.,24.0
1979-07-03 15:36:59.160 ,2,1,1.,24.0,1.,24.0,1.,24.0,0.,24.0
1979-07-03 15:37:23.160 ,6,1,2.,24.0,0.,24.0,0.,24.0,0.,24.0
1979-07-03 15:37:47.160 ,5,1,17.,24.0,0.,24.0,0.,24.0,0.,24.0
1979-07-03 15:38:11.160 ,1,1,0.,24.0,0.,24.0,1.,24.0,0.,24.0
1979-07-03 15:38:35.160 ,2,1,0.,24.0,1.,24.0,1.,24.0,0.,24.0
1979-07-03 15:38:59.160 ,6,1,1.,24.0,0.,24.0,1.,24.0,0.,24.0
1979-07-03 15:39:23.160 ,5,1,11.,24.0,0.,24.0,0.,24.0,0.,24.0
1979-07-03 15:39:47.160 ,1,1,0.,24.0,0.,24.0,0.,24.0,0.,24.0
1979-07-03 15:40:11.160 ,2,1,1.,24.0,0.,24.0,2.,24.0,0.,24.0
1979-07-03 15:40:35.160 ,6,1,0.,24.0,0.,24.0,0.,24.0,0.,24.0
1979-07-03 15:40:59.160 ,5,1,21.,24.0,0.,24.0,0.,24.0,0.,24.0
1979-07-03 15:41:23.160 ,1,1,0.,24.0,0.,24.0,0.,24.0,0.,24.0
1979-07-03 15:41:47.160 ,0,0,0.,24.0,0.,24.0,0.,24.0,0.,24.0
1979-07-03 15:42:11.160 ,0,0,0.,24.0,0.,24.0,1.,24.0,0.,24.0
1979-07-03 15:42:35.160 ,5,1,10.,24.0,0.,24.0,0.,24.0,0.,24.0
1979-07-03 15:42:59.160 ,5,0,2.,24.0,0.,24.0,0.,24.0,0.,24.0
1979-07-03 15:43:23.160 ,4,1,0.,24.0,0.,24.0,0.,24.0,0.,24.0
1979-07-03 15:43:47.160 ,4,0,0.,24.0,0.,24.0,0.,24.0,0.,24.0
1979-07-03 15:44:11.160 ,3,1,0.,24.0,0.,24.0,0.,24.0,0.,24.0
1979-07-03 15:44:35.160 ,3,0,0.,24.0,0.,24.0,0.,24.0,0.,24.0
1979-07-03 15:44:59.160 ,2,1,1.,24.0,0.,24.0,0.,24.0,0.,24.0
1979-07-03 15:45:23.160 ,2,0,0.,24.0,0.,24.0,0.,24.0,0.,24.0
1979-07-03 15:45:47.160 ,1,1,0.,24.0,0.,24.0,1.,24.0,0.,24.0
1979-07-03 15:46:11.160 ,1,0,1.,24.0,0.,24.0,2.,24.0,0.,24.0
1979-07-03 15:46:35.160 ,0,1,0.,24.0,0.,24.0,1.,24.0,0.,24.0
1979-07-03 15:46:59.160 ,0,0,0.,24.0,0.,24.0,0.,24.0,0.,24.0
1979-07-03 15:47:23.160 ,0,1,0.,24.0,0.,24.0,0.,24.0,0.,24.0
1979-07-03 15:47:47.160 ,0,0,0.,24.0,1.,24.0,0.,24.0,0.,24.0
1979-07-03 15:48:11.160 ,1,1,0.,24.0,0.,24.0,0.,24.0,0.,24.0
1979-07-03 15:48:35.160 ,1,0,0.,24.0,0.,24.0,0.,24.0,0.,24.0
1979-07-03 15:48:59.160 ,2,1,0.,24.0,0.,24.0,0.,24.0,0.,24.0
1979-07-03 15:49:23.160 ,2,0,0.,24.0,0.,24.0,0.,24.0,0.,24.0
1979-07-03 15:49:47.160 ,3,1,1.,24.0,0.,24.0,0.,24.0,0.,24.0
1979-07-03 15:50:11.160 ,3,0,0.,24.0,0.,24.0,0.,24.0,0.,24.0
1979-07-03 15:50:35.160 ,4,1,0.,24.0,0.,24.0,0.,24.0,0.,24.0
1979-07-03 15:50:59.160 ,4,0,0.,24.0,1.,24.0,1.,24.0,0.,24.0
1979-07-03 15:51:23.160 ,5,1,0.,24.0,1.,24.0,0.,24.0,0.,24.0
1979-07-03 15:51:47.160 ,5,0,0.,24.0,1.,24.0,0.,24.0,0.,24.0
1979-07-03 15:52:11.160 ,6,1,0.,24.0,0.,24.0,0.,24.0,0.,24.0
1979-07-03 15:52:35.160 ,6,0,0.,24.0,0.,24.0,0.,24.0,0.,24.0
1979-07-03 15:52:59.160 ,7,1,11.,24.0,0.,24.0,0.,24.0,0.,24.0
1979-07-03 15:53:23.160 ,7,0,31.,24.0,0.,24.0,0.,24.0,0.,24.0
1979-07-03 15:53:47.160 ,7,1,31.,24.0,0.,24.0,0.,24.0,0.,24.0
1979-07-03 15:54:11.160 ,7,0,23.,24.0,0.,24.0,0.,24.0,0.,24.0
1979-07-03 15:54:35.160 ,6,1,27.,24.0,0.,24.0,0.,24.0,0.,24.0
1979-07-03 15:54:59.160 ,6,0,0.,24.0,1.,24.0,0.,24.0,0.,24.0
1979-07-03 15:55:23.160 ,5,1,0.,24.0,0.,24.0,0.,24.0,0.,24.0
1979-07-03 15:55:47.160 ,5,0,0.,24.0,0.,24.0,0.,24.0,0.,24.0
1979-07-03 15:56:11.160 ,4,1,0.,24.0,0.,24.0,2.,24.0,0.,24.0
1979-07-03 15:56:35.160 ,4,0,0.,24.0,0.,24.0,0.,24.0,0.,24.0
1979-07-03 15:56:59.160 ,3,1,0.,24.0,0.,24.0,0.,24.0,0.,24.0
1979-07-03 15:57:23.160 ,3,0,0.,24.0,1.,24.0,0.,24.0,0.,24.0
1979-07-03 15:57:47.160 ,2,1,0.,24.0,0.,24.0,0.,24.0,0.,24.0
1979-07-03 15:58:11.160 ,2,0,0.,24.0,0.,24.0,0.,24.0,0.,24.0
1979-07-03 15:58:35.160 ,1,1,1.,24.0,0.,24.0,0.,24.0,0.,24.0
1979-07-03 15:58:59.160 ,1,0,0.,24.0,0.,24.0,0.,24.0,0.,24.0
1979-07-03 15:59:23.160 ,0,1,1.,24.0,0.,24.0,0.,24.0,0.,24.0
1979-07-03 15:59:47.160 ,0,0,0.,24.0,0.,24.0,0.,24.0,0.,24.0
1979-07-03 16:00:11.150 ,0,1,0.,24.0,0.,24.0,0.,24.0,0.,24.0
1979-07-03 16:00:35.160 ,0,0,0.,24.0,0.,24.0,0.,24.0,0.,24.0
1979-07-03 16:00:59.150 ,1,1,0.,24.0,0.,24.0,1.,24.0,0.,24.0
1979-07-03 16:01:23.150 ,1,0,0.,24.0,1.,24.0,0.,24.0,0.,24.0
1979-07-03 16:01:47.150 ,2,1,0.,24.0,1.,24.0,0.,24.0,0.,24.0
1979-07-03 16:02:11.150 ,2,0,0.,24.0,0.,24.0,0.,24.0,0.,24.0
1979-07-03 16:02:35.150 ,3,1,0.,24.0,0.,24.0,1.,24.0,0.,24.0
1979-07-03 16:02:59.150 ,3,0,0.,24.0,0.,24.0,1.,24.0,0.,24.0
1979-07-03 16:03:23.150 ,4,1,0.,24.0,0.,24.0,1.,24.0,0.,24.0
1979-07-03 16:03:47.150 ,4,0,2.,24.0,0.,24.0,1.,24.0,0.,24.0
1979-07-03 16:04:11.150 ,5,1,1.,24.0,1.,24.0,0.,24.0,0.,24.0
1979-07-03 16:04:35.150 ,5,0,1.,24.0,0.,24.0,1.,24.0,0.,24.0
1979-07-03 16:04:59.150 ,6,1,3.,24.0,0.,24.0,1.,24.0,0.,24.0
1979-07-03 16:05:23.150 ,6,0,0.,24.0,0.,24.0,0.,24.0,0.,24.0
1979-07-03 16:05:47.150 ,7,1,3.,24.0,0.,24.0,1.,24.0,0.,24.0
1979-07-03 16:06:11.150 ,7,0,27.,24.0,0.,24.0,0.,24.0,0.,24.0
1979-07-03 16:06:35.150 ,7,1,40.,24.0,0.,24.0,0.,24.0,0.,24.0
1979-07-03 16:06:59.150 ,7,0,24.,24.0,0.,24.0,0.,24.0,0.,24.0
1979-07-03 16:07:23.150 ,6,1,26.,24.0,0.,24.0,0.,24.0,0.,24.0
1979-07-03 16:07:47.150 ,6,0,0.,24.0,0.,24.0,0.,24.0,0.,24.0
1979-07-03 16:08:11.150 ,5,1,1.,24.0,1.,24.0,1.,24.0,0.,24.0
1979-07-03 16:08:35.150 ,5,0,0.,24.0,0.,24.0,0.,24.0,0.,24.0
1979-07-03 16:08:59.150 ,4,1,0.,24.0,0.,24.0,0.,24.0,0.,24.0
1979-07-03 16:09:23.150 ,4,0,0.,24.0,1.,24.0,0.,24.0,0.,24.0
1979-07-03 16:09:47.150 ,3,1,0.,24.0,0.,24.0,0.,24.0,0.,24.0
1979-07-03 16:10:11.150 ,3,0,0.,24.0,0.,24.0,0.,24.0,0.,24.0
1979-07-03 16:10:35.150 ,2,1,1.,24.0,0.,24.0,1.,24.0,0.,24.0
1979-07-03 16:10:59.150 ,2,0,0.,24.0,0.,24.0,0.,24.0,0.,24.0
1979-07-03 16:11:23.150 ,1,1,0.,24.0,0.,24.0,1.,24.0,0.,24.0
1979-07-03 16:11:47.150 ,1,0,0.,24.0,0.,24.0,0.,24.0,0.,24.0
1979-07-03 16:12:11.150 ,0,1,0.,24.0,0.,24.0,0.,24.0,0.,24.0
1979-07-03 16:12:35.150 ,0,0,0.,24.0,1.,24.0,0.,24.0,0.,24.0
1979-07-03 16:12:59.150 ,0,1,0.,24.0,0.,24.0,0.,24.0,0.,24.0
1979-07-03 16:13:23.150 ,0,0,0.,24.0,0.,24.0,1.,24.0,0.,24.0
1979-07-03 16:13:47.150 ,1,1,0.,24.0,0.,24.0,0.,24.0,0.,24.0
1979-07-03 16:14:11.150 ,1,0,0.,24.0,0.,24.0,0.,24.0,0.,24.0
1979-07-03 16:14:35.150 ,2,1,0.,24.0,0.,24.0,0.,24.0,0.,24.0
1979-07-03 16:14:59.150 ,2,0,0.,24.0,0.,24.0,0.,24.0,0.,24.0
1979-07-03 16:15:23.150 ,3,1,0.,24.0,0.,24.0,0.,24.0,0.,24.0
1979-07-03 16:15:47.150 ,3,0,1.,24.0,1.,24.0,0.,24.0,0.,24.0
1979-07-03 16:16:11.150 ,4,1,0.,24.0,0.,24.0,0.,24.0,0.,24.0
1979-07-03 16:16:35.150 ,4,0,0.,24.0,0.,24.0,0.,24.0,0.,24.0
1979-07-03 16:16:59.150 ,5,1,0.,24.0,0.,24.0,0.,24.0,0.,24.0
1979-07-03 16:17:23.150 ,5,0,0.,24.0,0.,24.0,0.,24.0,0.,24.0
1979-07-03 16:17:47.150 ,6,1,0.,24.0,1.,24.0,0.,24.0,0.,24.0
1979-07-03 16:18:11.150 ,6,0,0.,24.0,0.,24.0,0.,24.0,0.,24.0
1979-07-03 16:18:35.150 ,7,0,6.,24.0,0.,24.0,0.,24.0,0.,24.0
1979-07-03 16:18:59.150 ,7,0,33.,24.0,0.,24.0,0.,24.0,0.,24.0
1979-07-03 16:19:23.150 ,5,1,10.,24.0,0.,24.0,0.,24.0,0.,24.0
1979-07-03 16:19:47.150 ,1,1,0.,24.0,0.,24.0,0.,24.0,0.,24.0
1979-07-03 16:20:11.150 ,2,1,0.,24.0,0.,24.0,0.,24.0,0.,24.0
1979-07-03 16:20:35.150 ,6,1,0.,24.0,0.,24.0,0.,24.0,0.,24.0
1979-07-03 16:20:59.150 ,5,1,10.,24.0,0.,24.0,0.,24.0,0.,24.0
1979-07-03 16:21:23.150 ,1,1,0.,24.0,0.,24.0,1.,24.0,0.,24.0
1979-07-03 16:21:47.150 ,2,1,0.,24.0,2.,24.0,0.,24.0,0.,24.0
1979-07-03 16:22:11.150 ,6,1,0.,24.0,0.,24.0,0.,24.0,0.,24.0
1979-07-03 16:22:35.150 ,5,1,13.,24.0,1.,24.0,0.,24.0,0.,24.0
1979-07-03 16:22:59.150 ,1,1,0.,24.0,0.,24.0,0.,24.0,0.,24.0
1979-07-03 16:23:23.150 ,2,1,0.,24.0,0.,24.0,0.,24.0,0.,24.0
1979-07-03 16:23:47.150 ,6,1,0.,24.0,0.,24.0,0.,24.0,0.,24.0
1979-07-03 16:24:11.150 ,5,1,14.,24.0,0.,24.0,2.,24.0,0.,24.0
1979-07-03 16:24:35.150 ,1,1,0.,24.0,0.,24.0,1.,24.0,0.,24.0
1979-07-03 16:24:59.150 ,2,1,0.,24.0,0.,24.0,0.,24.0,0.,24.0
1979-07-03 16:25:23.150 ,6,1,0.,24.0,0.,24.0,0.,24.0,0.,24.0
1979-07-03 16:25:47.150 ,5,1,15.,24.0,0.,24.0,0.,24.0,0.,24.0
1979-07-03 16:26:11.150 ,1,1,0.,24.0,0.,24.0,0.,24.0,0.,24.0
1979-07-03 16:26:35.150 ,2,1,0.,24.0,0.,24.0,0.,24.0,0.,24.0
1979-07-03 16:26:59.150 ,6,1,1.,24.0,0.,24.0,0.,24.0,0.,24.0
1979-07-03 16:27:23.150 ,5,1,13.,24.0,0.,24.0,0.,24.0,0.,24.0
1979-07-03 16:27:47.150 ,1,1,0.,24.0,0.,24.0,2.,24.0,0.,24.0
1979-07-03 16:28:11.150 ,2,1,0.,24.0,0.,24.0,0.,24.0,0.,24.0
1979-07-03 16:28:35.150 ,6,1,0.,24.0,0.,24.0,0.,24.0,0.,24.0
1979-07-03 16:28:59.150 ,5,1,19.,24.0,0.,24.0,0.,24.0,0.,24.0
1979-07-03 16:29:23.150 ,1,1,0.,24.0,0.,24.0,0.,24.0,0.,24.0
1979-07-03 16:29:47.150 ,0,0,0.,24.0,0.,24.0,0.,24.0,0.,24.0
1979-07-03 16:30:11.150 ,0,0,0.,24.0,0.,24.0,1.,24.0,0.,24.0
1979-07-03 16:30:35.150 ,5,1,13.,24.0,0.,24.0,2.,24.0,0.,24.0
1979-07-03 16:30:59.150 ,5,0,1.,24.0,0.,24.0,0.,24.0,0.,24.0
1979-07-03 16:31:23.150 ,4,1,0.,24.0,0.,24.0,0.,24.0,0.,24.0
1979-07-03 16:31:47.150 ,4,0,1.,24.0,0.,24.0,0.,24.0,0.,24.0
1979-07-03 16:32:11.150 ,3,1,0.,24.0,0.,24.0,0.,24.0,0.,24.0
1979-07-03 16:32:35.150 ,3,0,0.,24.0,0.,24.0,0.,24.0,0.,24.0
1979-07-03 16:32:59.150 ,2,1,0.,24.0,0.,24.0,0.,24.0,0.,24.0
1979-07-03 16:33:23.150 ,2,0,0.,24.0,0.,24.0,0.,24.0,0.,24.0
1979-07-03 16:33:47.150 ,1,1,0.,24.0,0.,24.0,0.,24.0,0.,24.0
1979-07-03 16:34:11.150 ,1,0,0.,24.0,0.,24.0,1.,24.0,0.,24.0
1979-07-03 16:34:35.150 ,0,1,0.,24.0,0.,24.0,1.,24.0,0.,24.0
1979-07-03 16:34:59.150 ,0,0,0.,24.0,0.,24.0,0.,24.0,0.,24.0
1979-07-03 16:35:23.150 ,0,1,0.,24.0,0.,24.0,0.,24.0,0.,24.0
1979-07-03 16:35:47.150 ,0,0,0.,24.0,0.,24.0,0.,24.0,0.,24.0
1979-07-03 16:36:11.150 ,1,1,0.,24.0,0.,24.0,0.,24.0,0.,24.0
1979-07-03 16:36:35.150 ,1,0,1.,24.0,0.,24.0,0.,24.0,0.,24.0
1979-07-03 16:36:59.150 ,2,1,0.,24.0,0.,24.0,0.,24.0,0.,24.0
1979-07-03 16:37:23.150 ,2,0,0.,24.0,0.,24.0,0.,24.0,0.,24.0
1979-07-03 16:37:47.150 ,3,1,1.,24.0,0.,24.0,0.,24.0,0.,24.0
1979-07-03 16:38:11.150 ,3,0,0.,24.0,0.,24.0,1.,24.0,0.,24.0
1979-07-03 16:38:35.150 ,4,1,0.,24.0,0.,24.0,0.,24.0,0.,24.0
1979-07-03 16:38:59.150 ,4,0,2.,24.0,0.,24.0,0.,24.0,0.,24.0
1979-07-03 16:39:23.150 ,5,1,0.,24.0,0.,24.0,0.,24.0,0.,24.0
1979-07-03 16:39:47.150 ,5,0,0.,24.0,0.,24.0,1.,24.0,0.,24.0
1979-07-03 16:40:11.150 ,6,1,0.,24.0,0.,24.0,1.,24.0,0.,24.0
1979-07-03 16:40:35.150 ,6,0,0.,24.0,1.,24.0,0.,24.0,0.,24.0
1979-07-03 16:40:59.150 ,7,1,12.,24.0,1.,24.0,0.,24.0,0.,24.0
1979-07-03 16:41:23.150 ,7,0,25.,24.0,0.,24.0,1.,24.0,0.,24.0
1979-07-03 16:41:47.150 ,7,1,24.,24.0,0.,24.0,1.,24.0,0.,24.0
1979-07-03 16:42:11.150 ,7,0,20.,24.0,0.,24.0,0.,24.0,0.,24.0
1979-07-03 16:42:35.150 ,6,1,19.,24.0,0.,24.0,0.,24.0,0.,24.0
1979-07-03 16:42:59.150 ,6,0,0.,24.0,0.,24.0,0.,24.0,0.,24.0
1979-07-03 16:43:23.150 ,5,1,0.,24.0,0.,24.0,1.,24.0,0.,24.0
1979-07-03 16:43:47.150 ,5,0,0.,24.0,0.,24.0,0.,24.0,0.,24.0
1979-07-03 16:44:11.150 ,4,1,0.,24.0,1.,24.0,0.,24.0,0.,24.0
1979-07-03 16:44:35.150 ,4,0,0.,24.0,0.,24.0,0.,24.0,0.,24.0
1979-07-03 16:44:59.150 ,3,1,1.,24.0,0.,24.0,0.,24.0,0.,24.0
1979-07-03 16:45:23.150 ,3,0,0.,24.0,0.,24.0,0.,24.0,0.,24.0
1979-07-03 16:45:47.150 ,2,1,0.,24.0,0.,24.0,0.,24.0,0.,24.0
1979-07-03 16:46:11.150 ,2,0,1.,24.0,0.,24.0,2.,24.0,0.,24.0
1979-07-03 16:46:35.150 ,1,1,0.,24.0,1.,24.0,0.,24.0,0.,24.0
1979-07-03 16:46:59.150 ,1,0,0.,24.0,0.,24.0,0.,24.0,0.,24.0
1979-07-03 16:47:23.150 ,0,1,0.,24.0,0.,24.0,1.,24.0,0.,24.0
1979-07-03 16:47:47.150 ,0,0,0.,24.0,0.,24.0,0.,24.0,0.,24.0
1979-07-03 16:48:11.150 ,0,1,0.,24.0,0.,24.0,0.,24.0,0.,24.0
1979-07-03 16:48:35.150 ,0,0,1.,24.0,0.,24.0,0.,24.0,0.,24.0
1979-07-03 16:48:59.150 ,0,0,,0,,0,,0,,0
1979-07-03 16:49:23.150 ,0,0,,0,,0,,0,,0
1979-07-03 16:50:50.150 ,0,0,,0,,0,,0,,0
1979-07-03 16:50:59.150 ,0,0,0.,24.0,0.,24.0,0.,24.0,0.,24.0
1979-07-03 16:51:23.150 ,4,1,0.,24.0,0.,24.0,0.,24.0,0.,24.0
1979-07-03 16:51:47.150 ,4,0,0.,24.0,0.,24.0,0.,24.0,0.,24.0
1979-07-03 16:52:11.150 ,5,1,0.,24.0,0.,24.0,0.,24.0,0.,24.0
1979-07-03 16:52:35.150 ,5,0,0.,24.0,1.,24.0,0.,24.0,0.,24.0
1979-07-03 16:52:59.150 ,6,1,0.,24.0,0.,24.0,0.,24.0,0.,24.0
1979-07-03 16:53:23.150 ,6,0,0.,24.0,0.,24.0,1.,24.0,0.,24.0
1979-07-03 16:53:47.150 ,7,1,11.,24.0,0.,24.0,0.,24.0,0.,24.0
1979-07-03 16:54:11.150 ,7,0,40.,24.0,0.,24.0,1.,24.0,0.,24.0
1979-07-03 16:54:35.150 ,7,1,42.,24.0,0.,24.0,0.,24.0,0.,24.0
1979-07-03 16:54:59.150 ,7,0,43.,24.0,0.,24.0,0.,24.0,0.,24.0
1979-07-03 16:55:23.150 ,6,1,16.,24.0,0.,24.0,0.,24.0,0.,24.0
1979-07-03 16:55:47.150 ,6,0,0.,24.0,0.,24.0,0.,24.0,0.,24.0
1979-07-03 16:56:11.150 ,5,1,0.,24.0,1.,24.0,0.,24.0,0.,24.0
1979-07-03 16:56:35.150 ,5,0,0.,24.0,0.,24.0,0.,24.0,0.,24.0
1979-07-03 16:56:59.150 ,4,1,0.,24.0,0.,24.0,0.,24.0,0.,24.0
1979-07-03 16:57:23.150 ,4,0,1.,24.0,0.,24.0,0.,24.0,0.,24.0
1979-07-03 16:57:47.150 ,3,1,0.,24.0,0.,24.0,0.,24.0,0.,24.0
1979-07-03 16:58:11.150 ,3,0,0.,24.0,0.,24.0,0.,24.0,0.,24.0
1979-07-03 16:58:35.150 ,2,1,0.,24.0,0.,24.0,0.,24.0,0.,24.0
1979-07-03 16:58:59.150 ,2,0,0.,24.0,1.,24.0,0.,24.0,0.,24.0
1979-07-03 16:59:23.150 ,1,1,0.,24.0,0.,24.0,0.,24.0,0.,24.0
1979-07-03 16:59:47.150 ,1,0,1.,24.0,0.,24.0,0.,24.0,0.,24.0
1979-07-03 17:00:11.150 ,0,1,0.,24.0,0.,24.0,0.,24.0,0.,24.0
1979-07-03 17:00:35.150 ,0,0,0.,24.0,0.,24.0,1.,24.0,0.,24.0
1979-07-03 17:00:59.150 ,0,0,0.,24.0,0.,24.0,0.,24.0,0.,24.0
1979-07-03 17:01:23.150 ,0,0,1.,24.0,0.,24.0,0.,24.0,0.,24.0
1979-07-03 17:01:47.150 ,1,1,0.,24.0,0.,24.0,0.,24.0,0.,24.0
1979-07-03 17:02:11.150 ,1,0,0.,24.0,0.,24.0,0.,24.0,0.,24.0
1979-07-03 17:02:35.150 ,2,1,0.,24.0,0.,24.0,0.,24.0,0.,24.0
1979-07-03 17:02:59.150 ,2,0,2.,24.0,0.,24.0,0.,24.0,0.,24.0
1979-07-03 17:03:23.150 ,3,1,0.,24.0,0.,24.0,1.,24.0,0.,24.0
1979-07-03 17:03:47.150 ,3,0,0.,24.0,0.,24.0,0.,24.0,0.,24.0
1979-07-03 17:04:11.150 ,4,1,0.,24.0,0.,24.0,0.,24.0,0.,24.0
1979-07-03 17:04:35.150 ,4,0,0.,24.0,1.,24.0,2.,24.0,0.,24.0
1979-07-03 17:04:59.150 ,5,1,1.,24.0,0.,24.0,1.,24.0,0.,24.0
1979-07-03 17:05:23.150 ,5,0,0.,24.0,1.,24.0,0.,24.0,0.,24.0
1979-07-03 17:05:47.150 ,6,1,0.,24.0,0.,24.0,0.,24.0,0.,24.0
1979-07-03 17:06:11.150 ,6,0,1.,24.0,0.,24.0,0.,24.0,0.,24.0
1979-07-03 17:06:35.150 ,7,0,5.,24.0,0.,24.0,0.,24.0,0.,24.0
1979-07-03 17:06:59.150 ,7,0,38.,24.0,0.,24.0,0.,24.0,0.,24.0
1979-07-03 17:07:23.150 ,5,1,10.,24.0,0.,24.0,0.,24.0,0.,24.0
1979-07-03 17:07:47.150 ,1,1,1.,24.0,0.,24.0,0.,24.0,0.,24.0
1979-07-03 17:08:11.150 ,2,1,0.,24.0,0.,24.0,0.,24.0,0.,24.0
1979-07-03 17:08:35.150 ,6,1,0.,24.0,0.,24.0,0.,24.0,0.,24.0
1979-07-03 17:08:59.150 ,5,1,20.,24.0,0.,24.0,0.,24.0,0.,24.0
1979-07-03 17:09:23.150 ,1,1,0.,24.0,0.,24.0,1.,24.0,0.,24.0
1979-07-03 17:09:47.150 ,2,1,0.,24.0,0.,24.0,0.,24.0,0.,24.0
1979-07-03 17:10:11.150 ,6,1,1.,24.0,0.,24.0,0.,24.0,0.,24.0
1979-07-03 17:10:35.150 ,5,1,11.,24.0,0.,24.0,0.,24.0,0.,24.0
1979-07-03 17:10:59.150 ,1,1,0.,24.0,0.,24.0,0.,24.0,0.,24.0
1979-07-03 17:11:23.150 ,2,1,0.,24.0,0.,24.0,0.,24.0,0.,24.0
1979-07-03 17:11:47.150 ,6,1,0.,24.0,0.,24.0,0.,24.0,0.,24.0
1979-07-03 17:12:11.150 ,5,1,14.,24.0,0.,24.0,0.,24.0,0.,24.0
1979-07-03 17:12:35.150 ,1,1,0.,24.0,0.,24.0,0.,24.0,0.,24.0
1979-07-03 17:12:59.150 ,2,1,2.,24.0,0.,24.0,0.,24.0,0.,24.0
1979-07-03 17:13:23.150 ,6,1,0.,24.0,0.,24.0,0.,24.0,0.,24.0
1979-07-03 17:13:47.150 ,5,1,15.,24.0,0.,24.0,0.,24.0,0.,24.0
1979-07-03 17:14:11.150 ,1,1,0.,24.0,1.,24.0,0.,24.0,0.,24.0
1979-07-03 17:14:35.150 ,2,1,0.,24.0,0.,24.0,1.,24.0,0.,24.0
1979-07-03 17:14:59.150 ,6,1,0.,24.0,0.,24.0,1.,24.0,0.,24.0
1979-07-03 17:15:23.150 ,5,1,19.,24.0,0.,24.0,1.,24.0,0.,24.0
1979-07-03 17:15:47.150 ,1,1,0.,24.0,0.,24.0,1.,24.0,0.,24.0
1979-07-03 17:16:11.150 ,2,1,0.,24.0,0.,24.0,0.,24.0,0.,24.0
1979-07-03 17:16:35.150 ,6,1,0.,24.0,0.,24.0,0.,24.0,0.,24.0
1979-07-03 17:16:59.150 ,5,1,11.,24.0,0.,24.0,0.,24.0,0.,24.0
1979-07-03 17:17:23.150 ,1,1,0.,24.0,0.,24.0,0.,24.0,0.,24.0
1979-07-03 17:17:47.150 ,0,0,0.,24.0,0.,24.0,0.,24.0,0.,24.0
1979-07-03 17:18:11.150 ,0,0,1.,24.0,0.,24.0,0.,24.0,0.,24.0
1979-07-03 17:18:35.150 ,5,1,15.,24.0,0.,24.0,0.,24.0,0.,24.0
1979-07-03 17:18:59.150 ,5,0,0.,24.0,0.,24.0,0.,24.0,0.,24.0
1979-07-03 17:19:23.150 ,4,1,2.,24.0,0.,24.0,2.,24.0,0.,24.0
1979-07-03 17:19:47.150 ,4,0,2.,24.0,0.,24.0,2.,24.0,0.,24.0
1979-07-03 17:20:11.150 ,3,1,0.,24.0,0.,24.0,2.,24.0,0.,24.0
1979-07-03 17:20:35.150 ,3,0,0.,24.0,0.,24.0,0.,24.0,0.,24.0
1979-07-03 17:20:59.150 ,2,1,0.,24.0,0.,24.0,0.,24.0,0.,24.0
1979-07-03 17:21:23.150 ,2,0,0.,24.0,0.,24.0,1.,24.0,0.,24.0
1979-07-03 17:21:47.150 ,1,1,0.,24.0,0.,24.0,0.,24.0,0.,24.0
1979-07-03 17:22:11.150 ,1,0,0.,24.0,0.,24.0,0.,24.0,0.,24.0
1979-07-03 17:22:35.150 ,0,1,0.,24.0,0.,24.0,0.,24.0,0.,24.0
1979-07-03 17:22:59.150 ,0,0,0.,24.0,0.,24.0,0.,24.0,0.,24.0
1979-07-03 17:23:23.150 ,0,1,0.,24.0,0.,24.0,1.,24.0,0.,24.0
1979-07-03 17:23:47.150 ,0,0,0.,24.0,0.,24.0,2.,24.0,0.,24.0
1979-07-03 17:24:11.150 ,1,1,0.,24.0,0.,24.0,0.,24.0,0.,24.0
1979-07-03 17:24:35.150 ,1,0,0.,24.0,0.,24.0,0.,24.0,0.,24.0
1979-07-03 17:24:59.150 ,2,1,0.,24.0,0.,24.0,0.,24.0,0.,24.0
1979-07-03 17:25:23.150 ,2,0,1.,24.0,0.,24.0,1.,24.0,0.,24.0
1979-07-03 17:25:47.150 ,3,1,0.,24.0,0.,24.0,0.,24.0,0.,24.0
1979-07-03 17:26:11.150 ,3,0,0.,24.0,0.,24.0,0.,24.0,0.,24.0
1979-07-03 17:26:35.150 ,4,1,0.,24.0,0.,24.0,0.,24.0,0.,24.0
1979-07-03 17:26:59.150 ,4,0,0.,24.0,0.,24.0,1.,24.0,0.,24.0
1979-07-03 17:27:23.150 ,5,1,1.,24.0,0.,24.0,0.,24.0,0.,24.0
1979-07-03 17:27:47.150 ,5,0,0.,24.0,0.,24.0,1.,24.0,0.,24.0
1979-07-03 17:28:11.150 ,6,1,0.,24.0,0.,24.0,0.,24.0,0.,24.0
1979-07-03 17:28:35.150 ,6,0,1.,24.0,0.,24.0,1.,24.0,0.,24.0
1979-07-03 17:28:59.150 ,7,1,8.,24.0,0.,24.0,0.,24.0,0.,24.0
1979-07-03 17:29:23.150 ,7,0,27.,24.0,0.,24.0,0.,24.0,0.,24.0
1979-07-03 17:29:47.150 ,7,1,28.,24.0,0.,24.0,0.,24.0,0.,24.0
1979-07-03 17:30:11.150 ,7,0,26.,24.0,1.,24.0,0.,24.0,0.,24.0
1979-07-03 17:30:35.150 ,6,1,23.,24.0,0.,24.0,0.,24.0,0.,24.0
1979-07-03 17:30:59.150 ,6,0,0.,24.0,0.,24.0,0.,24.0,0.,24.0
1979-07-03 17:31:23.150 ,5,1,0.,24.0,1.,24.0,0.,24.0,0.,24.0
1979-07-03 17:31:47.150 ,5,0,0.,24.0,0.,24.0,0.,24.0,0.,24.0
1979-07-03 17:32:11.150 ,4,1,1.,24.0,0.,24.0,0.,24.0,0.,24.0
1979-07-03 17:32:35.150 ,4,0,1.,24.0,0.,24.0,1.,24.0,0.,24.0
1979-07-03 17:32:59.150 ,3,1,1.,24.0,0.,24.0,0.,24.0,0.,24.0
1979-07-03 17:33:23.150 ,3,0,0.,24.0,0.,24.0,0.,24.0,0.,24.0
1979-07-03 17:33:47.150 ,2,1,0.,24.0,0.,24.0,0.,24.0,0.,24.0
1979-07-03 17:34:11.150 ,2,0,0.,24.0,0.,24.0,0.,24.0,0.,24.0
1979-07-03 17:34:35.150 ,1,1,0.,24.0,0.,24.0,0.,24.0,0.,24.0
1979-07-03 17:34:59.150 ,1,0,0.,24.0,0.,24.0,1.,24.0,0.,24.0
1979-07-03 17:35:23.150 ,0,1,0.,24.0,0.,24.0,0.,24.0,0.,24.0
1979-07-03 17:35:47.150 ,0,0,0.,24.0,1.,24.0,0.,24.0,0.,24.0
1979-07-03 17:36:11.150 ,0,1,0.,24.0,0.,24.0,0.,24.0,0.,24.0
1979-07-03 17:36:35.150 ,0,0,0.,24.0,0.,24.0,0.,24.0,0.,24.0
1979-07-03 17:36:59.150 ,1,1,0.,24.0,0.,24.0,0.,24.0,0.,24.0
1979-07-03 17:37:23.150 ,1,0,0.,24.0,0.,24.0,1.,24.0,0.,24.0
1979-07-03 17:37:47.150 ,2,1,0.,24.0,0.,24.0,1.,24.0,0.,24.0
1979-07-03 17:38:11.150 ,2,0,0.,24.0,0.,24.0,0.,24.0,0.,24.0
1979-07-03 17:38:35.150 ,3,1,0.,24.0,0.,24.0,0.,24.0,0.,24.0
1979-07-03 17:38:59.150 ,3,0,0.,24.0,0.,24.0,0.,24.0,0.,24.0
1979-07-03 17:39:23.150 ,4,1,0.,24.0,0.,24.0,0.,24.0,0.,24.0
1979-07-03 17:39:47.150 ,4,0,0.,24.0,0.,24.0,1.,24.0,0.,24.0
1979-07-03 17:40:11.150 ,5,1,0.,24.0,0.,24.0,1.,24.0,0.,24.0
1979-07-03 17:40:35.150 ,5,0,0.,24.0,0.,24.0,0.,24.0,0.,24.0
1979-07-03 17:40:59.150 ,6,1,0.,24.0,0.,24.0,0.,24.0,0.,24.0
1979-07-03 17:41:23.150 ,6,0,0.,24.0,0.,24.0,0.,24.0,0.,24.0
1979-07-03 17:41:47.150 ,7,1,6.,24.0,0.,24.0,0.,24.0,0.,24.0
1979-07-03 17:42:11.150 ,7,0,36.,24.0,0.,24.0,0.,24.0,0.,24.0
1979-07-03 17:42:35.150 ,7,1,21.,24.0,0.,24.0,0.,24.0,0.,24.0
1979-07-03 17:42:59.150 ,7,0,29.,24.0,0.,24.0,0.,24.0,0.,24.0
1979-07-03 17:43:23.150 ,6,1,28.,24.0,0.,24.0,0.,24.0,0.,24.0
1979-07-03 17:43:47.150 ,6,0,0.,24.0,0.,24.0,0.,24.0,0.,24.0
1979-07-03 17:44:11.150 ,0,0,0.,24.0,1.,24.0,0.,24.0,0.,24.0
1979-07-03 17:44:35.150 ,0,0,,0,,0,,0,,0
1979-07-03 17:44:35.150 ,0,0,0.,24.0,0.,24.0,0.,24.0,0.,24.0
1979-07-03 17:44:59.150 ,4,1,0.,24.0,0.,24.0,0.,24.0,0.,24.0
1979-07-03 17:45:23.150 ,4,0,3.,24.0,0.,24.0,0.,24.0,0.,24.0
1979-07-03 17:45:47.150 ,3,1,2.,24.0,0.,24.0,0.,24.0,0.,24.0
1979-07-03 17:46:11.150 ,3,0,0.,24.0,0.,24.0,0.,24.0,0.,24.0
1979-07-03 17:46:35.150 ,2,1,0.,24.0,0.,24.0,2.,24.0,0.,24.0
1979-07-03 17:46:59.150 ,2,0,0.,24.0,0.,24.0,1.,24.0,0.,24.0
1979-07-03 17:47:23.150 ,1,1,1.,24.0,1.,24.0,0.,24.0,0.,24.0
1979-07-03 17:47:47.150 ,1,0,0.,24.0,0.,24.0,0.,24.0,0.,24.0
1979-07-03 17:48:11.150 ,0,1,0.,24.0,0.,24.0,0.,24.0,0.,24.0
1979-07-03 17:48:35.150 ,0,0,0.,24.0,1.,24.0,0.,24.0,0.,24.0
1979-07-03 17:48:59.150 ,0,1,0.,24.0,0.,24.0,0.,24.0,0.,24.0
1979-07-03 17:49:23.150 ,0,0,0.,24.0,0.,24.0,1.,24.0,0.,24.0
1979-07-03 17:49:47.150 ,1,1,0.,24.0,0.,24.0,0.,24.0,0.,24.0
1979-07-03 17:50:11.150 ,1,0,0.,24.0,0.,24.0,0.,24.0,0.,24.0
1979-07-03 17:50:35.150 ,2,1,0.,24.0,0.,24.0,0.,24.0,0.,24.0
1979-07-03 17:50:59.150 ,2,0,0.,24.0,0.,24.0,0.,24.0,0.,24.0
1979-07-03 17:51:23.150 ,3,1,0.,24.0,0.,24.0,0.,24.0,0.,24.0
1979-07-03 17:51:47.150 ,3,0,0.,24.0,0.,24.0,2.,24.0,0.,24.0
1979-07-03 17:52:11.150 ,4,1,0.,24.0,0.,24.0,1.,24.0,0.,24.0
1979-07-03 17:52:35.150 ,4,0,1.,24.0,0.,24.0,0.,24.0,0.,24.0
1979-07-03 17:52:59.150 ,5,1,1.,24.0,0.,24.0,0.,24.0,0.,24.0
1979-07-03 17:53:23.150 ,5,0,0.,24.0,0.,24.0,0.,24.0,0.,24.0
1979-07-03 17:53:47.150 ,6,1,0.,24.0,0.,24.0,0.,24.0,0.,24.0
1979-07-03 17:54:11.150 ,6,0,0.,24.0,0.,24.0,0.,24.0,0.,24.0
1979-07-03 17:54:35.150 ,7,0,6.,24.0,0.,24.0,1.,24.0,0.,24.0
1979-07-03 17:54:59.150 ,7,0,37.,24.0,0.,24.0,0.,24.0,0.,24.0
1979-07-03 17:55:23.150 ,5,1,25.,24.0,0.,24.0,0.,24.0,0.,24.0
1979-07-03 17:55:47.150 ,1,1,1.,24.0,0.,24.0,0.,24.0,0.,24.0
1979-07-03 17:56:11.150 ,2,1,0.,24.0,0.,24.0,0.,24.0,0.,24.0
1979-07-03 17:56:35.150 ,6,1,1.,24.0,0.,24.0,0.,24.0,0.,24.0
1979-07-03 17:56:59.150 ,5,1,16.,24.0,0.,24.0,0.,24.0,0.,24.0